This demonstration page uses our WeatherBlox Daily Observations layout. Learn more.

Left ArrowRight Arrow

34.16533, -84.80231

Hourly Observations for July 9, 2020

Temp ( °F °C ) Dew Point ( °F °C ) Humidity (%) Winds ( mph kmh ) Pressure ( in mb ) Visibility ( mi km ) Precip ( " mm )
12:53 am 00:53 Clear 74 23.3 70 21.1 88 88 Calm 29.90 1013 10 16 0.00 0.00
1:53 am 01:53 Clear 74 23.3 70 21.1 88 88 Calm 29.89 1012 10 16 0.00 0.00
2:53 am 02:53 Clear 72 22.2 69 20.6 91 91 Calm 29.88 1012 10 16 0.00 0.00
3:53 am 03:53 Clear 71 21.7 69 20.6 94 94 Calm 29.88 1012 10 16 0.00 0.00
4:53 am 04:53 Clear 71 21.7 68 20 90 90 Calm 29.88 1012 10 16 0.00 0.00
5:53 am 05:53 Mostly Clear 71 21.7 69 20.6 94 94 Calm 29.90 1013 10 16 0.00 0.00
6:31 am 06:31 Partly Cloudy 71 21.7 68 20 90 90 Calm 29.93 1013 10 16 0.00 0.00
6:53 am 06:53 Mostly Cloudy 70 21.1 68 20 93 93 Calm 29.92 1013 10 16 0.00 0.00
7:14 am 07:14 Mostly Cloudy 71 21.7 68 20 90 90 Calm 29.94 1014 10 16 0.00 0.00
7:53 am 07:53 Cloudy 73 22.8 69 20.6 87 87 Calm 29.93 1014 10 16 0.00 0.00
8:09 am 08:09 Mostly Cloudy 74 23.3 70 21.1 88 88 Calm 29.95 1014 10 16 0.00 0.00
8:18 am 08:18 Mostly Cloudy 74 23.3 70 21.1 88 88 Calm 29.95 1014 10 16 0.00 0.00
8:30 am 08:30 Cloudy 74 23.3 70 21.1 88 88 Calm 29.95 1014 10 16 0.00 0.00
8:44 am 08:44 Cloudy 75 23.9 70 21.1 84 84 Calm 29.95 1014 10 16 0.00 0.00
8:53 am 08:53 Cloudy 75 23.9 70 21.1 84 84 VRB 3 6 29.95 1014 10 16 0.00 0.00
9:00 am 09:00 Cloudy 75 23.9 71 21.7 88 88 Calm 29.96 1015 9 14 0.00 0.00
9:29 am 09:29 Mostly Cloudy 77 25 72 22.2 85 85 NE 3 6 29.96 1015 10 16 0.00 0.00
9:44 am 09:44 Mostly Sunny 79 26.1 72 22.2 79 79 NNE 3 6 29.95 1014 10 16 0.00 0.00
9:53 am 09:53 Sunny 80 26.7 72 22.2 76 76 Calm 29.94 1014 10 16 0.00 0.00
10:53 am 10:53 Sunny 83 28.3 72 22.2 70 70 ENE 5 7 29.93 1013 10 16 0.00 0.00
11:53 am 11:53 Sunny 86 30 72 22.2 63 63 N 3 6 29.92 1013 10 16 0.00 0.00
12:49 pm 12:49 Mostly Cloudy 88 31 72 22 59 59 NE 5 7 29.91 1013 10 16 0.00 0.00
12:53 pm 12:53 Mostly Cloudy 86 30 72 22.2 63 63 NNE 3 6 29.92 1013 10 16 0.00 0.00
1:53 pm 13:53 Partly Cloudy 89 31.7 71 21.7 55 55 VRB 3 6 29.91 1013 10 16 0.00 0.00
2:53 pm 14:53 Mostly Sunny 91 32.8 70 21.1 50 50 VRB 3 6 29.88 1012 10 16 0.00 0.00
3:53 pm 15:53 Mostly Sunny 91 32.8 71 21.7 52 52 VRB 3 6 29.86 1011 10 16 0.00 0.00
4:53 pm 16:53 Mostly Sunny 91 32.8 71 21.7 52 52 VRB 3 6 29.85 1011 10 16 0.00 0.00
5:21 pm 17:21 Sunny with Nearby Thunderstorms 89 31.7 71 21.7 55 55 NNW 5 7 29.84 1011 10 16 0.00 0.00
5:53 pm 17:53 Mostly Cloudy with Thunderstorms 83 28.3 75 23.9 77 77 VRB 3 6 29.86 1011 7 11 0.00 0.00
6:12 pm 18:12 Cloudy with Strong Thunderstorms 78 25.6 73 22.8 85 85 VRB 3 6 29.87 1011 2 3 0.08 2.03
6:26 pm 18:26 Cloudy with Thunderstorms 76 24.4 72 22.2 88 88 SW 7 11 29.88 1012 3 5 0.15 3.81
6:53 pm 18:53 Partly Cloudy with Nearby Thunderstorms 78 25.6 74 23.3 87 87 SW 3 6 29.87 1011 10 16 0.15 3.81
7:06 pm 19:06 Partly Cloudy 81 27.2 74 23.3 79 79 Calm 29.87 1012 10 16 0.00 0.00
7:30 pm 19:30 Mostly Cloudy with Nearby Thunderstorms 80 26.7 74 23.3 82 82 SSE 8 13 29.89 1012 10 16 0.00 0.00
7:53 pm 19:53 Cloudy with Nearby Thunderstorms 80 26.7 73 22.8 79 79 SSE 6 9 29.88 1012 10 16 0.00 0.00
8:45 pm 20:45 Mostly Cloudy 78 25.6 72 22.2 82 82 SSE 15 24 29.92 1013 10 16 0.00 0.00
8:53 pm 20:53 Mostly Cloudy 77 25 71 21.7 82 82 SE 10 17 29.90 1013 10 16 0.00 0.00
9:11 pm 21:11 Mostly Clear with Nearby Thunderstorms 77 25 71 21.7 82 82 SSE 8 13 29.90 1013 10 16 0.00 0.00
9:26 pm 21:26 Clear 77 25 71 21.7 82 82 NNW 3 6 29.91 1013 10 16 0.00 0.00
9:53 pm 21:53 Clear 76 24.4 71 21.7 85 85 Calm 29.91 1013 10 16 0.00 0.00
10:53 pm 22:53 Mostly Cloudy 74 23.3 71 21.7 91 91 Calm 29.91 1013 10 16 0.00 0.00
11:53 pm 23:53 Clear 73 22.8 71 21.7 94 94 Calm 29.91 1013 10 16 0.00 0.00

Powered by AerisWeather